| time (UTC) | temp F | wind direction | speed MPH | gust MPH | rain 1hr in | rain 24hr in | rain mn in | humidity % | barometer mb |
| 20260905205517 | 57 | 0 | 5.0 | 9.0 | 0.00 | 0.08 | 0.05 | 100 | 1002.2 |
| 20260905205017 | 57 | 0 | 5.0 | 10.0 | 0.00 | 0.08 | 0.05 | 100 | 1002.1 |
| 20260905204516 | 57 | 0 | 5.0 | 10.0 | 0.00 | 0.08 | 0.05 | 100 | 1002.2 |
| 20260905204017 | 57 | 0 | 6.0 | 11.0 | 0.00 | 0.08 | 0.05 | 100 | 1002.1 |
| 20260905203516 | 57 | 0 | 6.0 | 10.0 | 0.00 | 0.08 | 0.05 | 100 | 1002.1 |
| 20260905203017 | 57 | 0 | 6.0 | 12.0 | 0.00 | 0.08 | 0.05 | 100 | 1002.0 |
| 20260905202517 | 57 | 338 | 6.0 | 10.0 | 0.00 | 0.08 | 0.05 | 100 | 1001.9 |
| 20260905202017 | 57 | 0 | 6.0 | 14.0 | 0.00 | 0.08 | 0.05 | 100 | 1001.9 |
| 20260905201517 | 57 | 0 | 6.0 | 11.0 | 0.00 | 0.08 | 0.05 | 100 | 1002.0 |
| 20260905201017 | 57 | 0 | 6.0 | 12.0 | 0.00 | 0.09 | 0.05 | 100 | 1001.9 |
| 20260905200516 | 57 | 0 | 7.0 | 13.0 | 0.00 | 0.09 | 0.05 | 100 | 1001.9 |
| 20260905200016 | 58 | 0 | 6.0 | 12.0 | 0.00 | 0.10 | 0.05 | 100 | 1001.8 |
| 20260905195517 | 58 | 0 | 5.0 | 9.0 | 0.00 | 0.10 | 0.05 | 100 | 1001.8 |
| 20260905195017 | 57 | 0 | 7.0 | 11.0 | 0.00 | 0.11 | 0.05 | 100 | 1001.7 |
| 20260905194517 | 58 | 0 | 6.0 | 10.0 | 0.00 | 0.13 | 0.05 | 100 | 1001.7 |
| 20260905194017 | 57 | 338 | 7.0 | 13.0 | 0.00 | 0.14 | 0.05 | 100 | 1001.7 |
| 20260905193517 | 58 | 0 | 7.0 | 12.0 | 0.00 | 0.15 | 0.05 | 100 | 1001.6 |
| 20260905193017 | 58 | 338 | 6.0 | 12.0 | 0.00 | 0.15 | 0.05 | 100 | 1001.6 |
| 20260905192517 | 58 | 0 | 6.0 | 11.0 | 0.00 | 0.15 | 0.05 | 100 | 1001.6 |
| 20260905192017 | 58 | 338 | 7.0 | 15.0 | 0.00 | 0.15 | 0.05 | 100 | 1001.5 |
| 20260905191517 | 58 | 338 | 7.0 | 13.0 | 0.00 | 0.15 | 0.05 | 100 | 1001.7 |
| 20260905191017 | 58 | 0 | 6.0 | 10.0 | 0.00 | 0.15 | 0.05 | 100 | 1001.5 |
| 20260905190516 | 58 | 0 | 6.0 | 13.0 | 0.00 | 0.15 | 0.05 | 100 | 1001.4 |
| 20260905190016 | 58 | 0 | 8.0 | 13.0 | 0.00 | 0.15 | 0.05 | 100 | 1001.4 |
| 20260905185517 | 57 | 0 | 6.0 | 11.0 | 0.00 | 0.15 | 0.05 | 100 | 1001.3 |
| 20260905185017 | 57 | 0 | 6.0 | 12.0 | 0.00 | 0.15 | 0.05 | 100 | 1001.3 |
| 20260905184517 | 57 | 0 | 6.0 | 12.0 | 0.00 | 0.15 | 0.05 | 100 | 1001.3 |
| 20260905184016 | 57 | 0 | 7.0 | 14.0 | 0.00 | 0.15 | 0.05 | 100 | 1001.2 |
| 20260905183516 | 57 | 338 | 6.0 | 12.0 | 0.00 | 0.15 | 0.05 | 100 | 1001.2 |
| 20260905183017 | 57 | 0 | 7.0 | 11.0 | 0.00 | 0.15 | 0.05 | 100 | 1001.1 |
| 20260905182516 | 57 | 338 | 6.0 | 13.0 | 0.00 | 0.15 | 0.05 | 100 | 1001.2 |
| 20260905182017 | 58 | 0 | 6.0 | 9.0 | 0.00 | 0.15 | 0.05 | 100 | 1001.2 |
| 20260905181516 | 58 | 338 | 6.0 | 11.0 | 0.01 | 0.15 | 0.05 | 100 | 1001.2 |
| 20260905181017 | 58 | 338 | 6.0 | 10.0 | 0.01 | 0.15 | 0.05 | 100 | 1001.0 |
| 20260905180517 | 58 | 0 | 6.0 | 13.0 | 0.01 | 0.15 | 0.05 | 100 | 1000.9 |
| 20260905180016 | 58 | 0 | 6.0 | 10.0 | 0.01 | 0.15 | 0.05 | 100 | 1001.1 |
| 20260905175517 | 58 | 0 | 6.0 | 15.0 | 0.01 | 0.15 | 0.05 | 100 | 1001.0 |
| 20260905175017 | 58 | 338 | 5.0 | 8.0 | 0.01 | 0.15 | 0.05 | 100 | 1001.0 |
| 20260905174517 | 58 | 338 | 5.0 | 8.0 | 0.01 | 0.15 | 0.05 | 100 | 1001.0 |
| 20260905174016 | 58 | 338 | 5.0 | 8.0 | 0.01 | 0.15 | 0.05 | 100 | 1000.9 |
| 20260905173517 | 58 | 338 | 6.0 | 11.0 | 0.01 | 0.15 | 0.05 | 100 | 1000.9 |
| 20260905173017 | 58 | 338 | 5.0 | 7.0 | 0.01 | 0.15 | 0.05 | 100 | 1000.8 |
| 20260905172517 | 58 | 0 | 6.0 | 11.0 | 0.01 | 0.15 | 0.05 | 100 | 1000.8 |
| 20260905172017 | 58 | 0 | 6.0 | 12.0 | 0.01 | 0.15 | 0.05 | 100 | 1000.7 |
| 20260905171517 | 58 | 0 | 7.0 | 11.0 | 0.00 | 0.14 | 0.04 | 100 | 1000.6 |
| 20260905171017 | 58 | 0 | 6.0 | 11.0 | 0.00 | 0.14 | 0.04 | 100 | 1000.6 |
| 20260905170516 | 58 | 338 | 8.0 | 14.0 | 0.00 | 0.14 | 0.04 | 99 | 1000.6 |
| 20260905170017 | 58 | 338 | 6.0 | 11.0 | 0.00 | 0.14 | 0.04 | 100 | 1000.5 |
| 20260905165516 | 59 | 23 | 6.0 | 9.0 | 0.00 | 0.14 | 0.04 | 100 | 1000.5 |
| 20260905165017 | 59 | 0 | 7.0 | 13.0 | 0.00 | 0.14 | 0.04 | 99 | 1000.5 |
| 20260905164517 | 59 | 0 | 5.0 | 10.0 | 0.00 | 0.14 | 0.04 | 100 | 1000.4 |
| 20260905164017 | 59 | 0 | 6.0 | 11.0 | 0.00 | 0.14 | 0.04 | 100 | 1000.3 |
| 20260905163516 | 59 | 338 | 5.0 | 8.0 | 0.00 | 0.14 | 0.04 | 100 | 1000.3 |
| 20260905163016 | 60 | 0 | 6.0 | 12.0 | 0.00 | 0.14 | 0.04 | 100 | 1000.2 |
| 20260905162517 | 60 | 0 | 5.0 | 15.0 | 0.00 | 0.14 | 0.04 | 99 | 1000.2 |
| 20260905162017 | 60 | 0 | 5.0 | 12.0 | 0.00 | 0.14 | 0.04 | 99 | 1000.1 |
| 20260905161517 | 60 | 338 | 5.0 | 8.0 | 0.00 | 0.14 | 0.04 | 99 | 1000.1 |
| 20260905161017 | 60 | 0 | 6.0 | 10.0 | 0.00 | 0.14 | 0.04 | 99 | 1000.0 |
| 20260905160517 | 60 | 0 | 5.0 | 11.0 | 0.00 | 0.14 | 0.04 | 99 | 1000.0 |
| 20260905160017 | 60 | 0 | 6.0 | 12.0 | 0.00 | 0.14 | 0.04 | 99 | 999.8 |
| 20260905155517 | 60 | 0 | 6.0 | 12.0 | 0.00 | 0.14 | 0.04 | 99 | 999.8 |
| 20260905155017 | 60 | 0 | 7.0 | 15.0 | 0.00 | 0.14 | 0.04 | 98 | 999.7 |
| 20260905154517 | 60 | 0 | 5.0 | 8.0 | 0.00 | 0.15 | 0.04 | 99 | 999.7 |
| 20260905154017 | 60 | 0 | 6.0 | 12.0 | 0.00 | 0.15 | 0.04 | 99 | 999.6 |
| 20260905153517 | 60 | 0 | 5.0 | 10.0 | 0.00 | 0.15 | 0.04 | 99 | 999.6 |
| 20260905153017 | 60 | 338 | 7.0 | 12.0 | 0.00 | 0.16 | 0.04 | 98 | 999.6 |
| 20260905152517 | 60 | 0 | 6.0 | 13.0 | 0.00 | 0.17 | 0.04 | 99 | 999.6 |
| 20260905152017 | 60 | 0 | 6.0 | 11.0 | 0.00 | 0.17 | 0.04 | 99 | 999.6 |
| 20260905151517 | 60 | 0 | 6.0 | 12.0 | 0.00 | 0.19 | 0.04 | 99 | 999.6 |
| 20260905151017 | 60 | 0 | 7.0 | 12.0 | 0.00 | 0.25 | 0.04 | 99 | 999.6 |
| 20260905150517 | 60 | 0 | 5.0 | 9.0 | 0.00 | 0.30 | 0.04 | 99 | 999.6 |
| 20260905150017 | 60 | 0 | 6.0 | 10.0 | 0.00 | 0.31 | 0.04 | 99 | 999.6 |
| 20260905145516 | 60 | 0 | 6.0 | 15.0 | 0.00 | 0.31 | 0.04 | 99 | 999.7 |
| 20260905145016 | 60 | 0 | 6.0 | 10.0 | 0.00 | 0.31 | 0.04 | 99 | 999.6 |
| 20260905144517 | 60 | 0 | 5.0 | 8.0 | 0.00 | 0.31 | 0.04 | 99 | 999.7 |
| 20260905144017 | 60 | 0 | 5.0 | 10.0 | 0.00 | 0.31 | 0.04 | 99 | 999.7 |
| 20260905143517 | 60 | 0 | 5.0 | 10.0 | 0.00 | 0.31 | 0.04 | 99 | 999.7 |
| 20260905143017 | 60 | 0 | 5.0 | 10.0 | 0.00 | 0.32 | 0.04 | 98 | 999.7 |
| 20260905142517 | 60 | 0 | 6.0 | 13.0 | 0.00 | 0.32 | 0.04 | 98 | 999.7 |
| 20260905142017 | 60 | 0 | 6.0 | 11.0 | 0.01 | 0.33 | 0.04 | 98 | 999.6 |
| 20260905141516 | 60 | 0 | 6.0 | 10.0 | 0.01 | 0.34 | 0.04 | 98 | 999.6 |
| 20260905141017 | 59 | 0 | 6.0 | 17.0 | 0.01 | 0.35 | 0.04 | 98 | 999.7 |
| 20260905140517 | 59 | 0 | 5.0 | 13.0 | 0.01 | 0.36 | 0.04 | 99 | 999.7 |
| 20260905140017 | 59 | 0 | 6.0 | 13.0 | 0.01 | 0.37 | 0.04 | 98 | 999.6 |
| 20260905135517 | 59 | 338 | 6.0 | 11.0 | 0.01 | 0.37 | 0.04 | 98 | 999.7 |
| 20260905135017 | 60 | 0 | 5.0 | 10.0 | 0.01 | 0.38 | 0.04 | 99 | 999.6 |
| 20260905134517 | 60 | 0 | 5.0 | 9.0 | 0.01 | 0.39 | 0.04 | 99 | 999.5 |
| 20260905134016 | 60 | 338 | 7.0 | 12.0 | 0.01 | 0.40 | 0.04 | 99 | 999.5 |
| 20260905133516 | 60 | 338 | 6.0 | 12.0 | 0.01 | 0.45 | 0.04 | 99 | 999.5 |
| 20260905133016 | 60 | 0 | 5.0 | 9.0 | 0.01 | 0.51 | 0.04 | 99 | 999.5 |
| 20260905132517 | 60 | 0 | 5.0 | 9.0 | 0.01 | 0.52 | 0.04 | 99 | 999.6 |
| 20260905132017 | 60 | 23 | 4.0 | 8.0 | 0.00 | 0.52 | 0.03 | 99 | 999.5 |
| 20260905131517 | 60 | 338 | 3.0 | 5.0 | 0.00 | 0.53 | 0.03 | 99 | 999.4 |
| 20260905131017 | 60 | 338 | 5.0 | 9.0 | 0.00 | 0.53 | 0.03 | 99 | 999.3 |
| 20260905130517 | 60 | 338 | 6.0 | 10.0 | 0.00 | 0.54 | 0.03 | 98 | 999.3 |
| 20260905130017 | 61 | 0 | 4.0 | 8.0 | 0.00 | 0.54 | 0.03 | 99 | 999.3 |
| 20260905125517 | 61 | 0 | 4.0 | 7.0 | 0.00 | 0.55 | 0.03 | 98 | 999.3 |
| 20260905125017 | 61 | 0 | 4.0 | 11.0 | 0.00 | 0.55 | 0.03 | 98 | 999.3 |
| 20260905124517 | 61 | 338 | 5.0 | 8.0 | 0.00 | 0.56 | 0.03 | 98 | 999.3 |
| 20260905124017 | 61 | 0 | 3.0 | 7.0 | 0.00 | 0.57 | 0.03 | 99 | 999.4 |
| 20260905123517 | 62 | 338 | 4.0 | 6.0 | 0.00 | 0.57 | 0.03 | 99 | 999.4 |
| 20260905123017 | 61 | 0 | 3.0 | 8.0 | 0.00 | 0.57 | 0.03 | 99 | 999.2 |
| 20260905122516 | 61 | 45 | 3.0 | 9.0 | 0.00 | 0.58 | 0.03 | 99 | 999.2 |
| 20260905122017 | 61 | 23 | 3.0 | 5.0 | 0.00 | 0.59 | 0.03 | 99 | 999.2 |
| 20260905121517 | 60 | 23 | 4.0 | 5.0 | 0.00 | 0.60 | 0.03 | 99 | 999.2 |
| 20260905121017 | 60 | 23 | 5.0 | 9.0 | 0.01 | 0.61 | 0.03 | 100 | 999.3 |
| 20260905120517 | 60 | 23 | 4.0 | 9.0 | 0.01 | 0.65 | 0.03 | 100 | 999.2 |
| 20260905120017 | 60 | 0 | 4.0 | 8.0 | 0.01 | 0.68 | 0.03 | 100 | 999.3 |
| 20260905115517 | 61 | 0 | 4.0 | 11.0 | 0.01 | 0.69 | 0.03 | 100 | 999.2 |
| 20260905115017 | 61 | 0 | 5.0 | 9.0 | 0.01 | 0.69 | 0.03 | 100 | 999.3 |
| 20260905114516 | 61 | 0 | 4.0 | 7.0 | 0.02 | 0.69 | 0.03 | 100 | 999.1 |
| 20260905114017 | 61 | 0 | 5.0 | 9.0 | 0.02 | 0.69 | 0.03 | 100 | 999.1 |
| 20260905113517 | 61 | 0 | 5.0 | 10.0 | 0.02 | 0.70 | 0.03 | 100 | 998.9 |
| 20260905113016 | 61 | 0 | 4.0 | 7.0 | 0.02 | 0.70 | 0.03 | 100 | 998.8 |
| 20260905112517 | 61 | 0 | 4.0 | 7.0 | 0.02 | 0.71 | 0.03 | 100 | 998.7 |
| 20260905112017 | 61 | 0 | 3.0 | 6.0 | 0.02 | 0.72 | 0.03 | 100 | 998.5 |
| 20260905111516 | 61 | 338 | 3.0 | 6.0 | 0.02 | 0.72 | 0.03 | 100 | 998.6 |
| 20260905111017 | 61 | 0 | 3.0 | 5.0 | 0.02 | 0.72 | 0.02 | 100 | 998.5 |
| 20260905110516 | 61 | 338 | 3.0 | 6.0 | 0.02 | 0.74 | 0.02 | 100 | 998.5 |
| 20260905110017 | 61 | 338 | 3.0 | 6.0 | 0.02 | 0.76 | 0.02 | 100 | 998.4 |
| 20260905105516 | 61 | 338 | 2.0 | 6.0 | 0.02 | 0.77 | 0.02 | 100 | 998.3 |
| 20260905105017 | 61 | 338 | 2.0 | 4.0 | 0.02 | 0.78 | 0.02 | 100 | 998.4 |
| 20260905104517 | 61 | 338 | 2.0 | 5.0 | 0.01 | 0.80 | 0.02 | 100 | 998.3 |
| 20260905104017 | 61 | 338 | 2.0 | 3.0 | 0.01 | 0.81 | 0.02 | 100 | 998.3 |
| 20260905103517 | 61 | 338 | 2.0 | 5.0 | 0.01 | 0.82 | 0.02 | 100 | 998.2 |
| 20260905103016 | 61 | 338 | 2.0 | 5.0 | 0.01 | 0.83 | 0.02 | 100 | 998.2 |
| 20260905102517 | 61 | 338 | 2.0 | 6.0 | 0.01 | 0.83 | 0.02 | 100 | 998.2 |
| 20260905102016 | 61 | 338 | 2.0 | 6.0 | 0.00 | 0.86 | 0.01 | 100 | 998.3 |
| 20260905101517 | 61 | 338 | 2.0 | 3.0 | 0.00 | 0.91 | 0.01 | 100 | 998.3 |
| 20260905101016 | 60 | 338 | 1.0 | 2.0 | 0.00 | 0.94 | 0.01 | 100 | 998.2 |
| 20260905100517 | 61 | 338 | 1.0 | 3.0 | 0.00 | 0.98 | 0.01 | 100 | 998.1 |
| 20260905100016 | 60 | 0 | 1.0 | 2.0 | 0.00 | 1.04 | 0.01 | 100 | 998.1 |
| 20260905095516 | 60 | 0 | 1.0 | 4.0 | 0.00 | 1.08 | 0.01 | 100 | 998.1 |
| 20260905095017 | 60 | 338 | 1.0 | 2.0 | 0.00 | 1.10 | 0.01 | 100 | 998.1 |
| 20260905094516 | 60 | 338 | 1.0 | 3.0 | 0.00 | 1.13 | 0.01 | 100 | 998.1 |
| 20260905094017 | 60 | 338 | 1.0 | 3.0 | 0.00 | 1.15 | 0.01 | 100 | 998.1 |
| 20260905093516 | 60 | 0 | 1.0 | 2.0 | 0.00 | 1.17 | 0.01 | 100 | 998.2 |
| 20260905093016 | 60 | 0 | 1.0 | 3.0 | 0.00 | 1.18 | 0.01 | 100 | 998.1 |
| 20260905092517 | 60 | 338 | 1.0 | 2.0 | 0.00 | 1.20 | 0.01 | 100 | 998.1 |
| 20260905092016 | 60 | 338 | 1.0 | 4.0 | 0.00 | 1.22 | 0.01 | 100 | 998.1 |
| 20260905091517 | 60 | 23 | 1.0 | 3.0 | 0.00 | 1.25 | 0.01 | 100 | 998.0 |
| 20260905091017 | 60 | 338 | 2.0 | 3.0 | 0.00 | 1.27 | 0.01 | 100 | 998.0 |
| 20260905090516 | 60 | 0 | 1.0 | 3.0 | 0.00 | 1.28 | 0.01 | 100 | 998.0 |
| 20260905090017 | 60 | 338 | 2.0 | 4.0 | 0.00 | 1.30 | 0.01 | 100 | 998.1 |
| 20260905085517 | 61 | 338 | 2.0 | 4.0 | 0.00 | 1.31 | 0.01 | 100 | 998.1 |
| 20260905085016 | 61 | 0.0 | 3.0 | 0.00 | 1.32 | 0.01 | 100 | 998.1 | |
| 20260905084516 | 61 | 338 | 1.0 | 3.0 | 0.01 | 1.34 | 0.01 | 100 | 998.1 |
| 20260905084016 | 61 | 338 | 2.0 | 3.0 | 0.01 | 1.35 | 0.01 | 100 | 998.1 |
| 20260905083517 | 61 | 338 | 2.0 | 3.0 | 0.01 | 1.35 | 0.01 | 100 | 998.1 |
| 20260905083017 | 61 | 338 | 1.0 | 5.0 | 0.01 | 1.35 | 0.01 | 100 | 998.1 |
| 20260905082516 | 61 | 338 | 3.0 | 5.0 | 0.01 | 1.37 | 0.01 | 100 | 998.1 |
| 20260905082016 | 61 | 338 | 2.0 | 3.0 | 0.01 | 1.38 | 0.01 | 100 | 998.1 |
| 20260905081517 | 61 | 338 | 2.0 | 3.0 | 0.01 | 1.39 | 0.01 | 100 | 998.1 |
| 20260905081017 | 61 | 338 | 2.0 | 4.0 | 0.01 | 1.39 | 0.01 | 100 | 998.1 |
| 20260905080517 | 61 | 338 | 2.0 | 4.0 | 0.01 | 1.39 | 0.01 | 100 | 998.1 |
| 20260905080017 | 61 | 315 | 1.0 | 3.0 | 0.01 | 1.40 | 0.01 | 100 | 998.1 |
| 20260905075516 | 61 | 0.0 | 0.0 | 0.01 | 1.40 | 0.01 | 100 | 998.1 | |
| 20260905075016 | 61 | 0.0 | 0.0 | 0.01 | 1.40 | 0.01 | 100 | 998.1 | |
| 20260905074516 | 61 | 0.0 | 0.0 | 0.00 | 1.39 | 0.00 | 100 | 998.1 | |
| 20260905074017 | 61 | 0.0 | 0.0 | 0.00 | 1.40 | 0.00 | 100 | 998.1 | |
| 20260905073517 | 61 | 0.0 | 0.0 | 0.00 | 1.40 | 0.00 | 100 | 998.2 | |
| 20260905073017 | 61 | 0.0 | 0.0 | 0.00 | 1.40 | 0.00 | 100 | 998.2 | |
| 20260905072517 | 61 | 0.0 | 0.0 | 0.00 | 1.41 | 0.00 | 100 | 998.2 | |
| 20260905072017 | 61 | 0.0 | 0.0 | 0.00 | 1.41 | 0.00 | 100 | 998.2 | |
| 20260905071517 | 61 | 0.0 | 0.0 | 0.00 | 1.42 | 0.00 | 100 | 998.2 | |
| 20260905071017 | 61 | 0.0 | 0.0 | 0.00 | 1.43 | 0.00 | 100 | 998.2 | |
| 20260905070516 | 61 | 0.0 | 0.0 | 0.00 | 1.43 | 0.00 | 100 | 998.1 | |
| 20260905070016 | 61 | 0.0 | 0.0 | 0.00 | 1.43 | 0.00 | 100 | 998.1 | |
| 20260905065517 | 61 | 0.0 | 0.0 | 0.00 | 1.43 | 0.00 | 100 | 998.1 | |
| 20260905065017 | 61 | 0.0 | 0.0 | 0.00 | 1.44 | 0.00 | 100 | 998.2 | |
| 20260905064517 | 61 | 0.0 | 0.0 | 0.00 | 1.44 | 0.00 | 100 | 998.3 | |
| 20260905064016 | 61 | 0.0 | 0.0 | 0.00 | 1.44 | 0.00 | 100 | 998.4 | |
| 20260905063516 | 61 | 0.0 | 0.0 | 0.00 | 1.44 | 0.00 | 100 | 998.4 | |
| 20260905063017 | 61 | 0.0 | 0.0 | 0.00 | 1.44 | 0.00 | 100 | 998.3 | |
| 20260905062517 | 61 | 0.0 | 0.0 | 0.00 | 1.44 | 0.00 | 100 | 998.3 | |
| 20260905062017 | 61 | 0.0 | 0.0 | 0.00 | 1.44 | 0.00 | 100 | 998.4 | |
| 20260905061517 | 61 | 0.0 | 0.0 | 0.00 | 1.45 | 0.00 | 100 | 998.4 | |
| 20260905061017 | 61 | 0.0 | 0.0 | 0.00 | 1.45 | 0.00 | 100 | 998.5 | |
| 20260905060516 | 62 | 0.0 | 0.0 | 0.00 | 1.45 | 0.00 | 100 | 998.5 | |
| 20260905060017 | 62 | 0.0 | 0.0 | 0.00 | 1.45 | 0.00 | 100 | 998.6 | |
| 20260905055517 | 62 | 0.0 | 1.0 | 0.00 | 1.45 | 0.00 | 100 | 998.7 | |
| 20260905055017 | 62 | 0.0 | 1.0 | 0.00 | 1.46 | 0.00 | 100 | 998.7 | |
| 20260905054517 | 62 | 0.0 | 0.0 | 0.00 | 1.46 | 0.00 | 100 | 998.8 | |
| 20260905054017 | 62 | 0.0 | 0.0 | 0.00 | 1.46 | 0.00 | 100 | 998.8 | |
| 20260905053517 | 62 | 0.0 | 1.0 | 0.00 | 1.46 | 0.00 | 100 | 998.9 | |
| 20260905053016 | 62 | 0.0 | 1.0 | 0.00 | 1.46 | 0.00 | 100 | 999.0 | |
| 20260905052516 | 62 | 0.0 | 1.0 | 0.00 | 1.46 | 0.00 | 100 | 999.0 | |
| 20260905052017 | 62 | 0.0 | 1.0 | 0.00 | 1.47 | 0.00 | 100 | 999.1 | |
| 20260905051516 | 62 | 0.0 | 1.0 | 0.00 | 1.47 | 0.00 | 100 | 999.1 | |
| 20260905051017 | 62 | 0.0 | 0.0 | 0.00 | 1.47 | 0.00 | 100 | 999.1 | |
| 20260905050516 | 62 | 0.0 | 1.0 | 0.00 | 1.47 | 0.00 | 100 | 999.1 | |
| 20260905050016 | 63 | 0.0 | 3.0 | 0.00 | 1.47 | 0.00 | 100 | 999.1 | |
| 20260905045517 | 63 | 0.0 | 0.0 | 0.00 | 1.47 | 0.00 | 100 | 999.2 | |
| 20260905045016 | 63 | 0.0 | 0.0 | 0.00 | 1.47 | 0.00 | 100 | 999.1 | |
| 20260905044517 | 63 | 0.0 | 1.0 | 0.00 | 1.47 | 0.00 | 100 | 999.2 | |
| 20260905044017 | 63 | 0.0 | 2.0 | 0.00 | 1.48 | 0.00 | 100 | 999.2 | |
| 20260905043517 | 63 | 0.0 | 2.0 | 0.00 | 1.48 | 0.00 | 100 | 999.2 | |
| 20260905043017 | 63 | 0.0 | 0.0 | 0.00 | 1.48 | 0.00 | 100 | 999.3 | |
| 20260905042517 | 63 | 0.0 | 0.0 | 0.00 | 1.48 | 0.00 | 100 | 999.3 | |
| 20260905042017 | 63 | 0.0 | 0.0 | 0.00 | 1.48 | 0.00 | 100 | 999.5 | |
| 20260905041517 | 64 | 0.0 | 0.0 | 0.00 | 1.48 | 0.00 | 100 | 999.6 | |
| 20260905041016 | 64 | 0.0 | 0.0 | 0.00 | 1.48 | 0.00 | 100 | 999.6 | |
| 20260905040517 | 64 | 0.0 | 0.0 | 0.00 | 1.48 | 0.00 | 100 | 999.6 | |
| 20260905040017 | 64 | 0.0 | 0.0 | 0.00 | 1.48 | 0.00 | 100 | 999.7 | |
| 20260905035516 | 64 | 0.0 | 1.0 | 0.00 | 1.48 | 0.00 | 100 | 999.7 | |
| 20260905035017 | 64 | 0.0 | 1.0 | 0.00 | 1.48 | 0.00 | 100 | 999.8 | |
| 20260905034517 | 64 | 0.0 | 2.0 | 0.00 | 1.48 | 0.00 | 100 | 999.8 | |
| 20260905034017 | 64 | 0.0 | 2.0 | 0.00 | 1.48 | 0.00 | 100 | 1000.0 | |
| 20260905033517 | 64 | 0.0 | 1.0 | 0.00 | 1.48 | 0.00 | 100 | 1000.0 | |
| 20260905033016 | 64 | 0.0 | 1.0 | 0.00 | 1.48 | 0.00 | 100 | 1000.1 | |
| 20260905032516 | 64 | 0.0 | 1.0 | 0.00 | 1.48 | 0.00 | 100 | 1000.1 | |
| 20260905032017 | 64 | 0.0 | 2.0 | 0.00 | 1.48 | 0.00 | 100 | 1000.2 | |
| 20260905031517 | 64 | 0.0 | 1.0 | 0.00 | 1.49 | 0.00 | 100 | 1000.4 | |
| 20260905031017 | 64 | 0.0 | 2.0 | 0.00 | 1.50 | 0.00 | 100 | 1000.3 | |
| 20260905030517 | 64 | 0.0 | 2.0 | 0.00 | 1.50 | 0.00 | 100 | 1000.3 | |
| 20260905030016 | 64 | 0.0 | 0.0 | 0.00 | 1.50 | 1.50 | 100 | 1000.4 | |
| 20260905025517 | 64 | 0.0 | 0.0 | 0.00 | 1.50 | 1.50 | 100 | 1000.4 | |
| 20260905025017 | 64 | 0.0 | 0.0 | 0.00 | 1.50 | 1.50 | 100 | 1000.5 | |
| 20260905024517 | 65 | 0.0 | 4.0 | 0.00 | 1.50 | 1.50 | 100 | 1000.6 | |
| 20260905024017 | 65 | 0.0 | 1.0 | 0.00 | 1.50 | 1.50 | 100 | 1000.6 | |
| 20260905023517 | 65 | 0.0 | 2.0 | 0.00 | 1.50 | 1.50 | 100 | 1000.6 | |
| 20260905023017 | 65 | 0.0 | 1.0 | 0.00 | 1.50 | 1.50 | 100 | 1000.7 | |
| 20260905022517 | 65 | 0.0 | 0.0 | 0.00 | 1.50 | 1.50 | 100 | 1000.7 | |
| 20260905022017 | 65 | 0.0 | 0.0 | 0.00 | 1.50 | 1.50 | 100 | 1000.7 | |
| 20260905021517 | 65 | 0.0 | 0.0 | 0.00 | 1.50 | 1.50 | 100 | 1000.8 | |
| 20260905021017 | 65 | 0.0 | 1.0 | 0.00 | 1.50 | 1.50 | 100 | 1000.9 | |
| 20260905020517 | 65 | 0.0 | 1.0 | 0.00 | 1.50 | 1.50 | 100 | 1000.9 | |
| 20260905020017 | 65 | 0.0 | 2.0 | 0.00 | 1.50 | 1.50 | 100 | 1001.0 | |
| 20260905015517 | 65 | 0.0 | 1.0 | 0.00 | 1.50 | 1.50 | 100 | 1001.1 | |
| 20260905015017 | 65 | 0.0 | 0.0 | 0.00 | 1.50 | 1.50 | 100 | 1001.1 | |
| 20260905014517 | 65 | 0.0 | 1.0 | 0.00 | 1.50 | 1.50 | 100 | 1001.3 | |
| 20260905014017 | 65 | 0.0 | 2.0 | 0.00 | 1.50 | 1.50 | 100 | 1001.4 | |
| 20260905013517 | 65 | 0.0 | 0.0 | 0.00 | 1.50 | 1.50 | 100 | 1001.5 | |
| 20260905013017 | 65 | 0.0 | 2.0 | 0.00 | 1.50 | 1.50 | 100 | 1001.6 | |
| 20260905012517 | 65 | 0.0 | 0.0 | 0.00 | 1.50 | 1.50 | 100 | 1001.7 | |
| 20260905012017 | 65 | 0.0 | 0.0 | 0.00 | 1.50 | 1.50 | 100 | 1001.8 | |
| 20260905011517 | 65 | 0.0 | 0.0 | 0.00 | 1.50 | 1.50 | 100 | 1001.8 | |
| 20260905011017 | 65 | 0.0 | 0.0 | 0.00 | 1.50 | 1.50 | 100 | 1001.9 | |
| 20260905010518 | 65 | 0.0 | 0.0 | 0.00 | 1.50 | 1.50 | 100 | 1002.0 | |
| 20260905010017 | 65 | 0.0 | 0.0 | 0.00 | 1.50 | 1.50 | 100 | 1002.0 | |
| 20260905005517 | 65 | 0.0 | 0.0 | 0.00 | 1.50 | 1.50 | 100 | 1002.2 | |
| 20260905005017 | 65 | 0.0 | 0.0 | 0.00 | 1.50 | 1.50 | 100 | 1002.3 | |
| 20260905004517 | 65 | 0.0 | 0.0 | 0.00 | 1.50 | 1.50 | 100 | 1002.4 | |
| 20260905004017 | 65 | 0.0 | 0.0 | 0.00 | 1.50 | 1.50 | 100 | 1002.4 | |
| 20260905003517 | 65 | 0.0 | 0.0 | 0.00 | 1.50 | 1.50 | 100 | 1002.5 | |
| 20260905003017 | 65 | 0.0 | 0.0 | 0.00 | 1.50 | 1.50 | 100 | 1002.5 | |
| 20260905002517 | 65 | 0.0 | 0.0 | 0.00 | 1.50 | 1.50 | 100 | 1002.5 | |
| 20260905002017 | 65 | 0.0 | 0.0 | 0.00 | 1.50 | 1.50 | 100 | 1002.5 | |
| 20260905001517 | 65 | 0.0 | 0.0 | 0.00 | 1.50 | 1.50 | 100 | 1002.5 | |
| 20260905001017 | 65 | 0.0 | 0.0 | 0.00 | 1.50 | 1.50 | 100 | 1002.5 | |
| 20260905000517 | 66 | 0.0 | 0.0 | 0.00 | 1.50 | 1.50 | 100 | 1002.5 | |
| 20260905000017 | 66 | 0.0 | 0.0 | 0.00 | 1.50 | 1.50 | 100 | 1002.4 | |
| 20260904235517 | 66 | 0.0 | 0.0 | 0.00 | 1.50 | 1.50 | 100 | 1002.4 | |
| 20260904235017 | 66 | 0.0 | 0.0 | 0.00 | 1.50 | 1.50 | 100 | 1002.5 | |
| 20260904234517 | 66 | 0.0 | 0.0 | 0.00 | 1.50 | 1.50 | 100 | 1002.5 | |
| 20260904234017 | 66 | 0.0 | 0.0 | 0.00 | 1.50 | 1.50 | 100 | 1002.5 | |
| 20260904233517 | 66 | 0.0 | 0.0 | 0.00 | 1.50 | 1.50 | 100 | 1002.5 | |
| 20260904233017 | 66 | 0.0 | 0.0 | 0.00 | 1.50 | 1.50 | 100 | 1002.6 | |
| 20260904232517 | 66 | 0.0 | 0.0 | 0.00 | 1.50 | 1.50 | 100 | 1002.6 | |
| 20260904232017 | 66 | 0.0 | 0.0 | 0.00 | 1.50 | 1.50 | 100 | 1002.5 | |
| 20260904231517 | 66 | 0.0 | 0.0 | 0.00 | 1.50 | 1.50 | 100 | 1002.5 | |
| 20260904231017 | 66 | 0.0 | 0.0 | 0.00 | 1.50 | 1.50 | 100 | 1002.6 | |
| 20260904230517 | 66 | 0.0 | 0.0 | 0.00 | 1.50 | 1.50 | 100 | 1002.5 | |
| 20260904230017 | 66 | 0.0 | 0.0 | 0.00 | 1.50 | 1.50 | 100 | 1002.4 | |
| 20260904225517 | 66 | 0.0 | 0.0 | 0.00 | 1.50 | 1.50 | 100 | 1002.5 | |
| 20260904225017 | 66 | 0.0 | 0.0 | 0.00 | 1.50 | 1.50 | 100 | 1002.5 | |
| 20260904224517 | 66 | 0.0 | 0.0 | 0.00 | 1.50 | 1.50 | 100 | 1002.5 | |
| 20260904224017 | 66 | 0.0 | 0.0 | 0.00 | 1.50 | 1.50 | 100 | 1002.5 | |
| 20260904223517 | 66 | 0.0 | 0.0 | 0.00 | 1.50 | 1.50 | 100 | 1002.5 | |
| 20260904223017 | 66 | 0.0 | 0.0 | 0.00 | 1.50 | 1.50 | 100 | 1002.6 | |
| 20260904222517 | 66 | 0.0 | 0.0 | 0.00 | 1.50 | 1.50 | 100 | 1002.6 | |
| 20260904222017 | 66 | 0.0 | 0.0 | 0.02 | 1.50 | 1.50 | 100 | 1002.6 | |
| 20260904221517 | 67 | 0.0 | 0.0 | 0.03 | 1.50 | 1.50 | 100 | 1002.6 | |
| 20260904221017 | 67 | 0.0 | 0.0 | 0.03 | 1.50 | 1.50 | 100 | 1002.6 | |
| 20260904220517 | 67 | 0.0 | 0.0 | 0.03 | 1.50 | 1.50 | 100 | 1002.6 | |
| 20260904220017 | 67 | 0.0 | 0.0 | 0.03 | 1.50 | 1.50 | 100 | 1002.6 | |
| 20260904215517 | 67 | 0.0 | 0.0 | 0.03 | 1.50 | 1.50 | 100 | 1002.6 | |
| 20260904215017 | 67 | 0.0 | 0.0 | 0.03 | 1.50 | 1.50 | 100 | 1002.7 | |
| 20260904214517 | 67 | 0.0 | 0.0 | 0.03 | 1.50 | 1.50 | 100 | 1002.7 | |
| 20260904214017 | 67 | 0.0 | 0.0 | 0.03 | 1.50 | 1.50 | 100 | 1002.7 | |
| 20260904213517 | 67 | 0.0 | 0.0 | 0.03 | 1.50 | 1.50 | 100 | 1002.7 | |
| 20260904213017 | 67 | 0.0 | 0.0 | 0.03 | 1.50 | 1.50 | 100 | 1002.7 | |
| 20260904212517 | 67 | 0.0 | 0.0 | 0.03 | 1.50 | 1.50 | 100 | 1002.8 | |
| 20260904212017 | 67 | 0.0 | 0.0 | 0.02 | 1.48 | 1.48 | 100 | 1002.9 | |
| 20260904211517 | 67 | 0.0 | 0.0 | 0.00 | 1.46 | 1.46 | 100 | 1002.9 | |
| 20260904211017 | 67 | 0.0 | 1.0 | 0.01 | 1.46 | 1.46 | 100 | 1002.9 | |
| 20260904210517 | 67 | 0.0 | 2.0 | 0.02 | 1.47 | 1.46 | 100 | 1003.0 | |
| 20260904210017 | 67 | 0.0 | 1.0 | 0.02 | 1.47 | 1.46 | 100 | 1003.1 |